Weather History for Sylvania, GA

Change the Weather History Date:

Friday, December 14, 2012

  Actual Average (KSAV) Record (KSAV)
Temperature  
Mean Temperature 49 °F 52 °F  
Max Temperature 64 °F 63 °F 81 °F (1931)
Min Temperature 35 °F 41 °F 18 °F (1960)
Degree Days  
Heating Degree Days 16 13  
Month to date heating degree days 169  
Since 1 July heating degree days 436  
Cooling Degree Days 0 0  
Month to date cooling degree days 3  
Year to date cooling degree days 2452  
Moisture  
Dew Point 42 °F    
Average Humidity 87    
Maximum Humidity 100    
Minimum Humidity 51    
Precipitation  
Precipitation 0.00 in 0.09 in 1.68 in (1943)
Month to date precipitation 1.26  
Year to date precipitation 46.27  
Sea Level Pressure  
Sea Level Pressure 30.31 in    
Wind  
Wind Speed 2 mph (NE)    
Max Wind Speed 8 mph    
Max Gust Speed -    
Visibility 9 miles    
Events      
T = Trace of Precipitation, MM = Missing Value Source: NWS Daily Summary

Daily Weather History Graph

Daily Weather History Graph

Search for Another Location

Airport:

Trip Planner

Search our weather history database for the weather conditions in past years. The results will help you decide how hot, cold, wet, or windy it might be!

Date:

Astronomy

Dec. 14, 2012 Rise Set
Actual Time 7:20 AM EST 5:21 PM EST
Civil Twilight 6:53 AM EST 5:49 PM EST
Nautical Twilight 6:22 AM EST 6:19 PM EST
Astronomical Twilight 5:52 AM EST 6:49 PM EST
Moon 8:26 AM EST (12/14) 7:09 PM EST (12/14)
Length of Visible Light 10h 55m
Length of Day
10h 01m
Waxing Crescent, 3% of the Moon is Illuminated
Dec 14
Waxing Crescent
Dec 20
First Quarter
Dec 28
Full
Jan 4
Last Quarter
Jan 11
New

Hourly Weather History & Observations

Time (EST) Temp. Windchill Dew Point Humidity Pressure Visibility Wind Dir Wind Speed Gust Speed Precip Events Conditions
12:15 AM 40.5 °F - 40.5 °F 100% 30.34 in 4.0 mi Calm Calm - N/A   Mostly Cloudy
12:55 AM 39.0 °F - 39.0 °F 100% 30.34 in 4.0 mi Calm Calm - N/A   Clear
1:15 AM 38.7 °F - 38.7 °F 100% 30.33 in 5.0 mi Calm Calm - N/A   Scattered Clouds
1:35 AM 38.5 °F - 38.5 °F 100% 30.32 in 5.0 mi Calm Calm - N/A   Clear
1:55 AM 38.7 °F - 38.7 °F 100% 30.32 in 7.0 mi Calm Calm - N/A   Clear
2:15 AM 39.2 °F - 39.2 °F 100% 30.32 in 7.0 mi Calm Calm - N/A   Clear
2:35 AM 40.5 °F - 40.5 °F 100% 30.32 in 10.0 mi Calm Calm - N/A   Clear
2:55 AM 40.5 °F - 40.5 °F 100% 30.32 in 10.0 mi Calm Calm - N/A   Clear
3:15 AM 37.9 °F - 37.9 °F 100% 30.32 in 7.0 mi Calm Calm - N/A   Clear
3:55 AM 37.0 °F - 37.0 °F 100% 30.32 in 7.0 mi Calm Calm - N/A   Clear
4:15 AM 36.5 °F - 36.5 °F 100% 30.32 in 5.0 mi Calm Calm - N/A   Clear
4:35 AM 35.8 °F - 35.8 °F 100% 30.32 in 5.0 mi Calm Calm - N/A   Clear
4:55 AM 36.0 °F - 36.0 °F 100% 30.32 in 10.0 mi Calm Calm - N/A   Clear
5:15 AM 36.0 °F - 36.0 °F 100% 30.32 in 7.0 mi Calm Calm - N/A   Clear
5:35 AM 38.1 °F 35.7 °F 38.1 °F 100% 30.32 in 7.0 mi NNE 3.5 mph - N/A   Clear
5:55 AM 39.2 °F 35.9 °F 39.2 °F 100% 30.33 in 7.0 mi NNE 4.6 mph - N/A   Clear
6:15 AM 39.6 °F 35.4 °F 39.6 °F 100% 30.35 in 10.0 mi NNE 5.8 mph - N/A   Clear
6:35 AM 39.2 °F 35.9 °F 39.2 °F 100% 30.34 in 7.0 mi NE 4.6 mph - N/A   Clear
6:55 AM 39.4 °F 36.1 °F 39.4 °F 100% 30.34 in 7.0 mi NE 4.6 mph - N/A   Clear
7:15 AM 40.1 °F 36.1 °F 39.7 °F 99% 30.33 in 10.0 mi NE 5.8 mph - N/A   Clear
7:35 AM 39.9 °F 36.7 °F 39.6 °F 99% 30.35 in 7.0 mi NE 4.6 mph - N/A   Clear
7:55 AM 40.1 °F 36.1 °F 39.7 °F 99% 30.36 in 7.0 mi NNE 5.8 mph - N/A   Clear
8:15 AM 41.2 °F 36.6 °F 40.5 °F 97% 30.37 in 10.0 mi NE 6.9 mph - N/A   Clear
8:35 AM 42.6 °F 37.8 °F 41.2 °F 95% 30.37 in 10.0 mi NE 8.1 mph - N/A   Clear
8:55 AM 43.9 °F 41.3 °F 41.5 °F 91% 30.37 in 10.0 mi NE 4.6 mph - N/A   Clear
9:15 AM 46.0 °F 41.9 °F 42.6 °F 88% 30.38 in 10.0 mi NE 8.1 mph - N/A   Clear
9:35 AM 47.3 °F - 42.4 °F 83% 30.39 in 10.0 mi ENE 8.1 mph - N/A   Clear
9:55 AM 48.6 °F - 42.8 °F 80% 30.40 in 10.0 mi NE 6.9 mph - N/A   Clear
10:15 AM 50.2 °F - 43.3 °F 77% 30.40 in 10.0 mi NE 8.1 mph - N/A   Clear
10:35 AM 51.6 °F - 44.1 °F 75% 30.40 in 10.0 mi ENE 4.6 mph - N/A   Clear
10:55 AM 52.9 °F - 44.6 °F 73% 30.40 in 10.0 mi NE 5.8 mph - N/A   Clear
11:15 AM 54.1 °F - 45.3 °F 72% 30.38 in 10.0 mi ENE 5.8 mph - N/A   Clear
11:35 AM 55.6 °F - 46.0 °F 70% 30.37 in 10.0 mi East 4.6 mph - N/A   Clear
11:55 AM 56.8 °F - 46.4 °F 68% 30.35 in 10.0 mi East 6.9 mph - N/A   Clear
12:15 PM 57.9 °F - 46.8 °F 66% 30.34 in 10.0 mi NE 4.6 mph - N/A   Clear
12:35 PM 59.7 °F - 47.3 °F 63% 30.32 in 10.0 mi ENE 4.6 mph - N/A   Clear
12:55 PM 60.1 °F - 46.0 °F 60% 30.30 in 10.0 mi NE 8.1 mph - N/A   Clear
1:15 PM 61.0 °F - 46.0 °F 58% 30.29 in 10.0 mi East 4.6 mph - N/A   Clear
1:35 PM 61.7 °F - 45.7 °F 56% 30.27 in 10.0 mi NNE 5.8 mph - N/A   Clear
3:35 PM 63.9 °F - 46.2 °F 53% 30.24 in 10.0 mi ENE 3.5 mph - N/A   Clear
3:55 PM 63.1 °F - 45.0 °F 51% 30.23 in 10.0 mi NNE 4.6 mph - N/A   Clear
4:15 PM 62.8 °F - 45.5 °F 53% 30.23 in 10.0 mi NE 4.6 mph - N/A   Clear
4:35 PM 62.4 °F - 45.7 °F 54% 30.22 in 10.0 mi ENE 4.6 mph - N/A   Clear
4:55 PM 61.2 °F - 46.2 °F 58% 30.23 in 10.0 mi Calm Calm - N/A   Clear
5:15 PM 58.1 °F - 46.0 °F 64% 30.23 in 10.0 mi NE 3.5 mph - N/A   Clear
5:35 PM 54.7 °F - 46.2 °F 73% 30.23 in 10.0 mi Calm Calm - N/A   Clear
5:55 PM 51.6 °F - 46.4 °F 82% 30.24 in 10.0 mi NE 3.5 mph - N/A   Clear
6:15 PM 49.8 °F - 46.0 °F 87% 30.24 in 10.0 mi NE 3.5 mph - N/A   Clear
6:35 PM 48.4 °F - 45.9 °F 91% 30.25 in 10.0 mi Calm Calm - N/A   Clear
6:55 PM 48.2 °F - 45.5 °F 90% 30.25 in 10.0 mi Calm Calm - N/A   Clear
7:35 PM 45.7 °F - 44.4 °F 95% 30.25 in 10.0 mi Calm Calm - N/A   Clear
7:55 PM 44.6 °F - 43.9 °F 97% 30.25 in 10.0 mi Calm Calm - N/A   Clear
8:15 PM 45.0 °F - 44.4 °F 98% 30.26 in 10.0 mi Calm Calm - N/A   Clear
8:35 PM 43.7 °F - 43.2 °F 98% 30.26 in 10.0 mi Calm Calm - N/A   Clear
8:55 PM 43.0 °F - 42.8 °F 99% 30.26 in 10.0 mi Calm Calm - N/A   Clear
9:15 PM 42.8 °F - 42.6 °F 99% 30.26 in 10.0 mi Calm Calm - N/A   Clear
9:35 PM 41.4 °F - 41.2 °F 99% 30.26 in 10.0 mi Calm Calm - N/A   Clear
10:35 PM 40.1 °F - 40.1 °F 100% 30.26 in 10.0 mi Calm Calm - N/A   Clear
10:55 PM 40.1 °F - 40.1 °F 100% 30.25 in 10.0 mi Calm Calm - N/A   Clear
11:15 PM 40.1 °F - 40.1 °F 100% 30.25 in 10.0 mi Calm Calm - N/A   Clear
11:35 PM 39.6 °F - 39.6 °F 100% 30.25 in 10.0 mi Calm Calm - N/A   Clear
11:55 PM 39.2 °F - 39.2 °F 100% 30.24 in 10.0 mi Calm Calm - N/A   Clear